When you browse on this site, cookies collect data to enhance your experience and personalize the content and advertising you see.
Visit our Privacy Policy to learn more. By continuing to use the site, you agree to this use of cookies and data.
  • Em Portugal
  • Lista de países
  • Para 7 dias
  • Temperatura da água
  • Mapas de satélite
  • Mapa do tempo
  • Widgets de tempo
  • user-avatar
    Iniciar Sessão

    Previsão horária em Selidovo

    Hoje, 23 Maio, Quinta-feira

    Tempo Temperatura Precipitação Vento Pressão Humidade
    00:00 +13°C° 0 mm 3 m/s 742 mmHg 92%
    01:00 +13°C° 0 mm 3 m/s 742 mmHg 92%
    02:00 +12°C° 0 mm 3 m/s 741 mmHg 93%
    03:00 +12°C° 0 mm 3 m/s 741 mmHg 92%
    04:00 +12°C° 0 mm 3 m/s 741 mmHg 91%
    05:00 +13°C° 0 mm 3 m/s 741 mmHg 90%
    06:00 +14°C° 0 mm 3 m/s 741 mmHg 84%
    07:00 +17°C° 0 mm 3 m/s 741 mmHg 78%
    08:00 +19°C° 0 mm 3 m/s 741 mmHg 72%
    09:00 +20°C° 0.4 mm 4 m/s 741 mmHg 67%
    10:00 +21°C° 0.4 mm 4 m/s 741 mmHg 63%
    11:00 +22°C° 0.4 mm 4 m/s 741 mmHg 59%
    12:00 +22°C° 0.6 mm 5 m/s 741 mmHg 60%
    13:00 +22°C° 0.6 mm 5 m/s 741 mmHg 61%
    14:00 +22°C° 0.6 mm 5 m/s 741 mmHg 62%
    15:00 +22°C° 0.1 mm 5 m/s 741 mmHg 63%
    16:00 +22°C° 0.1 mm 5 m/s 741 mmHg 64%
    17:00 +22°C° 0.1 mm 4 m/s 740 mmHg 66%
    18:00 +20°C° 0 mm 3 m/s 741 mmHg 72%
    19:00 +19°C° 0 mm 3 m/s 741 mmHg 78%
    20:00 +17°C° 0 mm 2 m/s 741 mmHg 84%
    21:00 +17°C° 0 mm 2 m/s 741 mmHg 85%
    22:00 +16°C° 0 mm 2 m/s 741 mmHg 87%
    23:00 +16°C° 0 mm 2 m/s 741 mmHg 88%

    Amanhã, 24 Maio, Sexta-feira

    Tempo Temperatura Precipitação Vento Pressão Humidade
    00:00 +15°C° 0 mm 2 m/s 741 mmHg 89%
    01:00 +15°C° 0 mm 2 m/s 741 mmHg 90%
    02:00 +15°C° 0 mm 2 m/s 741 mmHg 90%
    03:00 +15°C° 0 mm 2 m/s 741 mmHg 90%
    04:00 +15°C° 0 mm 2 m/s 741 mmHg 89%
    05:00 +15°C° 0 mm 2 m/s 742 mmHg 88%
    06:00 +18°C° 0 mm 1 m/s 742 mmHg 80%
    07:00 +20°C° 0 mm 1 m/s 742 mmHg 73%
    08:00 +22°C° 0 mm 1 m/s 742 mmHg 66%
    09:00 +23°C° 0 mm 1 m/s 742 mmHg 61%
    10:00 +25°C° 0 mm 1 m/s 742 mmHg 56%
    11:00 +26°C° 0 mm 2 m/s 742 mmHg 51%
    12:00 +26°C° 0.2 mm 2 m/s 742 mmHg 52%
    13:00 +26°C° 0.2 mm 3 m/s 742 mmHg 53%
    14:00 +26°C° 0.2 mm 3 m/s 742 mmHg 53%
    15:00 +25°C° 0.6 mm 3 m/s 742 mmHg 56%
    16:00 +25°C° 0.6 mm 2 m/s 742 mmHg 59%
    17:00 +25°C° 0.6 mm 2 m/s 741 mmHg 61%
    18:00 +23°C° 0.7 mm 2 m/s 742 mmHg 67%
    19:00 +20°C° 0.7 mm 2 m/s 742 mmHg 73%
    20:00 +19°C° 0.7 mm 2 m/s 742 mmHg 79%
    21:00 +18°C° 0 mm 2 m/s 742 mmHg 80%
    22:00 +17°C° 0 mm 2 m/s 742 mmHg 81%
    23:00 +17°C° 0 mm 2 m/s 742 mmHg 81%

    Depois de amanhã, 25 Maio, Sábado

    Tempo Temperatura Precipitação Vento Pressão Humidade
    00:00 +16°C° 0 mm 2 m/s 741 mmHg 81%
    01:00 +16°C° 0 mm 2 m/s 741 mmHg 80%
    02:00 +15°C° 0 mm 2 m/s 741 mmHg 80%
    03:00 +15°C° 0 mm 2 m/s 741 mmHg 80%
    04:00 +15°C° 0 mm 2 m/s 741 mmHg 80%
    05:00 +16°C° 0 mm 2 m/s 741 mmHg 80%
    06:00 +19°C° 0 mm 1 m/s 741 mmHg 74%
    07:00 +21°C° 0 mm 1 m/s 741 mmHg 67%
    08:00 +23°C° 0 mm 1 m/s 742 mmHg 61%
    09:00 +24°C° 0.4 mm 2 m/s 741 mmHg 59%
    10:00 +24°C° 0.4 mm 2 m/s 741 mmHg 56%
    11:00 +25°C° 0.4 mm 3 m/s 741 mmHg 53%
    12:00 +25°C° 0 mm 3 m/s 741 mmHg 53%
    13:00 +25°C° 0 mm 2 m/s 740 mmHg 53%
    14:00 +25°C° 0 mm 2 m/s 740 mmHg 53%
    15:00 +25°C° 0.2 mm 2 m/s 740 mmHg 57%
    16:00 +24°C° 0.2 mm 2 m/s 740 mmHg 62%
    17:00 +23°C° 0.2 mm 1 m/s 739 mmHg 67%
    18:00 +21°C° 1.3 mm 2 m/s 739 mmHg 72%
    19:00 +19°C° 1.3 mm 2 m/s 739 mmHg 78%
    20:00 +18°C° 1.3 mm 2 m/s 739 mmHg 83%
    21:00 +18°C° 0.2 mm 3 m/s 739 mmHg 85%
    22:00 +17°C° 0.2 mm 3 m/s 739 mmHg 87%
    23:00 +17°C° 0.2 mm 4 m/s 739 mmHg 89%

    26 Maio, Domingo

    Tempo Temperatura Precipitação Vento Pressão Humidade
    00:00 +17°C° 1.4 mm 4 m/s 739 mmHg 90%
    01:00 +17°C° 1.4 mm 4 m/s 739 mmHg 91%
    02:00 +15°C° 1.4 mm 4 m/s 739 mmHg 92%
    03:00 +15°C° 0.7 mm 4 m/s 739 mmHg 92%
    04:00 +15°C° 0.7 mm 4 m/s 740 mmHg 92%
    05:00 +16°C° 0.7 mm 3 m/s 740 mmHg 91%
    06:00 +17°C° 0.1 mm 4 m/s 740 mmHg 89%
    07:00 +18°C° 0.1 mm 4 m/s 740 mmHg 86%
    08:00 +19°C° 0.1 mm 4 m/s 740 mmHg 83%
    09:00 +21°C° 0.6 mm 5 m/s 740 mmHg 75%
    10:00 +22°C° 0.6 mm 5 m/s 741 mmHg 67%
    11:00 +25°C° 0.6 mm 5 m/s 741 mmHg 59%
    12:00 +25°C° 0.6 mm 5 m/s 741 mmHg 59%
    13:00 +24°C° 0.6 mm 6 m/s 741 mmHg 59%
    14:00 +24°C° 0.6 mm 6 m/s 741 mmHg 59%
    15:00 +25°C° 0.2 mm 5 m/s 741 mmHg 63%
    16:00 +25°C° 0.2 mm 5 m/s 741 mmHg 66%
    17:00 +23°C° 0.2 mm 4 m/s 741 mmHg 69%
    18:00 +22°C° 0.4 mm 4 m/s 741 mmHg 74%
    19:00 +20°C° 0.4 mm 4 m/s 742 mmHg 80%
    20:00 +19°C° 0.4 mm 3 m/s 742 mmHg 85%
    21:00 +18°C° 0 mm 3 m/s 742 mmHg 87%
    22:00 +17°C° 0 mm 3 m/s 743 mmHg 88%
    23:00 +17°C° 0 mm 3 m/s 743 mmHg 90%

    27 Maio, Segunda-feira

    Tempo Temperatura Precipitação Vento Pressão Humidade
    00:00 +17°C° 0 mm 3 m/s 743 mmHg 91%
    01:00 +16°C° 0 mm 2 m/s 744 mmHg 91%
    02:00 +16°C° 0 mm 2 m/s 744 mmHg 92%
    03:00 +16°C° 0 mm 2 m/s 745 mmHg 91%
    04:00 +16°C° 0 mm 2 m/s 745 mmHg 90%
    05:00 +16°C° 0 mm 2 m/s 745 mmHg 89%
    06:00 +18°C° 0 mm 3 m/s 746 mmHg 82%
    07:00 +20°C° 0 mm 3 m/s 746 mmHg 76%
    08:00 +22°C° 0 mm 3 m/s 747 mmHg 69%
    09:00 +23°C° 0 mm 4 m/s 747 mmHg 65%
    10:00 +25°C° 0 mm 4 m/s 747 mmHg 60%
    11:00 +26°C° 0 mm 4 m/s 747 mmHg 55%
    12:00 +27°C° 0 mm 4 m/s 747 mmHg 53%
    13:00 +27°C° 0 mm 4 m/s 747 mmHg 51%
    14:00 +28°C° 0 mm 4 m/s 747 mmHg 50%
    15:00 +28°C° 0 mm 3 m/s 747 mmHg 52%
    16:00 +27°C° 0 mm 3 m/s 747 mmHg 55%
    17:00 +27°C° 0 mm 2 m/s 747 mmHg 57%
    18:00 +25°C° 0 mm 3 m/s 747 mmHg 64%
    19:00 +22°C° 0 mm 3 m/s 748 mmHg 70%
    20:00 +21°C° 0 mm 3 m/s 748 mmHg 76%
    21:00 +20°C° 0 mm 3 m/s 748 mmHg 78%
    22:00 +19°C° 0 mm 3 m/s 748 mmHg 79%
    23:00 +18°C° 0 mm 3 m/s 748 mmHg 81%

    28 Maio, Terça-feira

    Tempo Temperatura Precipitação Vento Pressão Humidade
    00:00 +18°C° 0 mm 2 m/s 748 mmHg 80%
    01:00 +17°C° 0 mm 2 m/s 748 mmHg 80%
    02:00 +17°C° 0 mm 2 m/s 748 mmHg 79%
    03:00 +17°C° 0 mm 2 m/s 748 mmHg 80%
    04:00 +17°C° 0 mm 2 m/s 748 mmHg 80%
    05:00 +17°C° 0 mm 2 m/s 748 mmHg 81%
    06:00 +19°C° 0 mm 2 m/s 749 mmHg 74%
    07:00 +21°C° 0 mm 3 m/s 749 mmHg 68%
    08:00 +22°C° 0 mm 3 m/s 749 mmHg 62%
    09:00 +25°C° 0 mm 4 m/s 749 mmHg 58%
    10:00 +26°C° 0 mm 4 m/s 748 mmHg 54%
    11:00 +27°C° 0 mm 4 m/s 748 mmHg 51%
    12:00 +28°C° 0 mm 4 m/s 748 mmHg 52%
    13:00 +28°C° 0 mm 5 m/s 748 mmHg 53%
    14:00 +29°C° 0 mm 5 m/s 748 mmHg 54%
    15:00 +28°C° 0 mm 4 m/s 747 mmHg 56%
    16:00 +28°C° 0 mm 4 m/s 747 mmHg 59%
    17:00 +28°C° 0 mm 4 m/s 747 mmHg 62%
    18:00 +26°C° 0 mm 4 m/s 747 mmHg 67%
    19:00 +24°C° 0 mm 3 m/s 747 mmHg 72%
    20:00 +22°C° 0 mm 3 m/s 747 mmHg 77%
    21:00 +21°C° 0 mm 3 m/s 746 mmHg 78%
    22:00 +21°C° 0 mm 3 m/s 746 mmHg 80%
    23:00 +21°C° 0 mm 3 m/s 746 mmHg 81%
    Mostrar mais